Hayward, WI

5:46 PM CDT on May 26, 2017 (GMT -0500)
Sawyer County

Weather History for KHYR - February, 2013

Change the Weather History Date:

Saturday, February 23, 2013

  Actual Average Record
Temperature  
Mean Temperature 24 °F -  
Max Temperature 30 °F 42 °F 43 °F (2002)
Min Temperature 19 °F 9 °F -23 °F (2015)
Degree Days  
Heating Degree Days 40    
Moisture  
Dew Point 21 °F    
Average Humidity 86    
Maximum Humidity 93    
Minimum Humidity 72    
Precipitation  
Precipitation 0.00 in - - ()
Sea Level Pressure  
Sea Level Pressure 29.83 in    
Wind  
Wind Speed 0 mph (West)    
Max Wind Speed 4 mph    
Max Gust Speed -    
Visibility 8 miles    
Events Snow    
Averages and records for this station are not official NWS values.
T = Trace of Precipitation, MM = Missing Value Source: NWS Daily Summary

Daily Weather History Graph

Daily Weather History Graph

Search for Another Location

Airport or City:

Trip Planner

Search our weather history database for the weather conditions in past years. The results will help you decide how hot, cold, wet, or windy it might be!

Date:

Astronomy

Feb. 23, 2013 Rise Set
Actual Time 6:54 AM CST 5:44 PM CST
Civil Twilight 6:24 AM CST 6:14 PM CST
Nautical Twilight 5:49 AM CST 6:49 PM CST
Astronomical Twilight 5:15 AM CST 7:23 PM CST
Moon 3:51 PM CST (2/23) 5:21 AM CST (2/23)
Length of Visible Light 11h 49m
Length of Day
10h 49m
Waxing Gibbous, 95% of the Moon is Illuminated
Feb 23
Waxing Gibbous
Feb 25
Full
Mar 4
Last Quarter
Mar 11
New
Mar 19
First Quarter

Hourly Weather History & Observations

Time (CST) Temp. Windchill Dew Point Humidity Pressure Visibility Wind Dir Wind Speed Gust Speed Precip Events Conditions
12:00 AM 19.4 °F - 15.8 °F 86% 29.79 in 10.0 mi Calm Calm - N/A   Overcast
12:09 AM 19.4 °F - 15.8 °F 86% 29.78 in 10.0 mi Calm Calm - N/A   Overcast
12:53 AM 21.0 °F - 18.0 °F 88% 29.84 in 9.0 mi Calm Calm - N/A   Overcast
1:05 AM 21.2 °F - 17.6 °F 86% 29.78 in 9.0 mi Calm Calm - N/A   Overcast
1:53 AM 21.0 °F - 19.0 °F 92% 29.84 in 9.0 mi Calm Calm - N/A   Overcast
2:02 AM 21.2 °F - 19.4 °F 93% 29.78 in 9.0 mi Calm Calm - N/A   Overcast
2:25 AM 21.2 °F - 19.4 °F 93% 29.77 in 10.0 mi Calm Calm - N/A   Overcast
2:53 AM 21.9 °F - 19.0 °F 89% 29.83 in 10.0 mi Calm Calm - N/A   Overcast
3:53 AM 21.0 °F - 19.0 °F 92% 29.81 in 6.0 mi Calm Calm - N/A   Overcast
4:39 AM 21.2 °F - 19.4 °F 93% 29.76 in 10.0 mi Calm Calm - N/A   Overcast
4:53 AM 21.9 °F - 19.0 °F 89% 29.81 in 9.0 mi Calm Calm - N/A   Overcast
5:53 AM 21.9 °F - 19.0 °F 89% 29.82 in 10.0 mi Calm Calm - N/A   Overcast
6:53 AM 21.9 °F - 19.9 °F 92% 29.83 in 10.0 mi Calm Calm - N/A   Overcast
7:36 AM 23.0 °F - 21.2 °F 93% 29.77 in 7.0 mi Calm Calm - 0.00 in   Overcast
7:53 AM 24.1 °F - 21.0 °F 88% 29.83 in 9.0 mi Calm Calm - 0.00 in   Overcast
8:40 AM 24.8 °F - 21.2 °F 86% 29.78 in 10.0 mi Calm Calm - N/A   Overcast
8:53 AM 25.0 °F - 21.0 °F 85% 29.84 in 10.0 mi Calm Calm - N/A   Overcast
9:13 AM 24.8 °F - 21.2 °F 86% 29.78 in 5.0 mi Calm Calm - N/A   Overcast
9:53 AM 26.1 °F - 23.0 °F 88% 29.85 in 10.0 mi Calm Calm - N/A   Overcast
10:44 AM 28.4 °F - 24.8 °F 86% 29.79 in 10.0 mi Calm Calm - N/A   Overcast
10:53 AM 28.0 °F - 24.1 °F 85% 29.85 in 10.0 mi Calm Calm - N/A   Overcast
11:34 AM 28.4 °F 24.6 °F 23.0 °F 80% 29.79 in 10.0 mi Variable 3.5 mph - N/A   Overcast
11:53 AM 28.9 °F - 24.1 °F 82% 29.85 in 10.0 mi Calm Calm - N/A   Overcast
12:53 PM 30.0 °F - 24.1 °F 79% 29.84 in 10.0 mi Calm Calm - N/A   Overcast
1:53 PM 30.0 °F - 23.0 °F 75% 29.84 in 10.0 mi Calm Calm - N/A   Overcast
2:16 PM 30.2 °F - 23.0 °F 75% 29.78 in 10.0 mi Calm Calm - N/A   Overcast
2:53 PM 30.9 °F - 23.0 °F 72% 29.84 in 10.0 mi Calm Calm - N/A   Overcast
3:22 PM 30.2 °F - 23.0 °F 75% 29.78 in 10.0 mi Calm Calm - N/A   Overcast
3:53 PM 30.0 °F 26.5 °F 23.0 °F 75% 29.85 in 10.0 mi Variable 3.5 mph - N/A   Overcast
4:53 PM 30.0 °F 26.5 °F 23.0 °F 75% 29.86 in 10.0 mi West 3.5 mph - N/A   Overcast
5:48 PM 28.4 °F - 24.8 °F 86% 29.81 in 4.0 mi Calm Calm - 0.00 in Snow Light Snow
5:53 PM 28.9 °F - 24.1 °F 82% 29.87 in 5.0 mi Calm Calm - 0.00 in Snow Light Snow
6:04 PM 28.4 °F - 24.8 °F 86% 29.82 in 3.0 mi Calm Calm - 0.00 in Snow Light Snow
6:35 PM 26.6 °F - 23.0 °F 86% 29.83 in 5.0 mi Calm Calm - 0.00 in Snow Light Snow
6:51 PM 26.6 °F - 21.2 °F 80% 29.83 in 8.0 mi Calm Calm - 0.00 in   Overcast
6:53 PM 26.1 °F - 21.9 °F 84% 29.89 in 9.0 mi Calm Calm - 0.00 in   Overcast
7:06 PM 24.8 °F - 21.2 °F 86% 29.83 in 6.0 mi Calm Calm - 0.00 in Snow Light Snow
7:29 PM 24.8 °F - 21.2 °F 86% 29.84 in 10.0 mi Calm Calm - 0.00 in   Overcast
7:53 PM 24.1 °F - 19.9 °F 84% 29.90 in 2.5 mi Calm Calm - 0.00 in   Overcast
8:03 PM 23.0 °F - 19.4 °F 86% 29.84 in 8.0 mi Calm Calm - N/A   Overcast
8:09 PM 23.0 °F - 19.4 °F 86% 29.84 in 1.5 mi Calm Calm - N/A   Overcast
8:12 PM 21.2 °F - 19.4 °F 93% 29.84 in 0.8 mi Calm Calm - N/A   Overcast
8:32 PM 23.0 °F - 21.2 °F 93% 29.85 in 1.5 mi Calm Calm - N/A   Overcast
8:34 PM 23.0 °F - 21.2 °F 93% 29.85 in 3.0 mi Calm Calm - N/A   Overcast
8:53 PM 23.0 °F - 19.9 °F 88% 29.91 in 10.0 mi Calm Calm - N/A   Overcast
9:05 PM 23.0 °F - 19.4 °F 86% 29.85 in 10.0 mi Calm Calm - N/A   Overcast
9:53 PM 25.0 °F - 21.9 °F 88% 29.91 in 8.0 mi Calm Calm - N/A   Overcast
10:53 PM 26.1 °F - 23.0 °F 88% 29.92 in 10.0 mi Calm Calm - 0.00 in   Overcast
11:53 PM 25.0 °F - 21.9 °F 88% 29.94 in 10.0 mi Calm Calm - N/A   Overcast